User: anonymous
Location: Vancouver
(49.2500°N, 123.1330°W)
Time: 22:57:13
(UTC-07:00)
Language:

BREEZE-M DEB (TANK) - Orbit

View from above orbital plane
View from above orbital plane
View from above satellite
View from above satellite

Ground track
Ground track

The orbit data is extracted from the following two-line orbital elements,

1 27821U 03024B   14201.83382840  .00003834  00000-0  35339-3 0  4453
2 27821 049.5600 135.8991 5023076 310.5019 029.3856 05.62462229219872
Epoch (UTC): 20 July 2014 20:00:42
Eccentricity: 0.5023076
inclination: 49.5600°
perigee height: 269 km
apogee height: 13686 km
right ascension of ascending node: 135.8991°
argument of perigee: 310.5019°
revolutions per day: 5.62462229
mean anomaly at epoch: 29.3856°
orbit number at epoch: 21987

The dashed part of the orbit path shows where the satellite is in the earth's shadow,  

DLR